CW5752 Weather Reports


time (UTC)temp
C
wind
direction
speed
KPH
gust
KPH
rain 1hr
cm
rain 24hr
cm
rain mn
cm
humidity
%
barometer
mb
20260508014521 13 200 0.0 3.2 0.00 0.00 0.00 61 1014.3
20260508013521 13 0.0 0.0 0.00 0.00 0.00 64 1014.1
20260508012521 13 0.0 0.0 0.00 0.00 0.00 66 1014.1
20260508011521 13 0.0 0.0 0.00 0.00 0.00 70 1014.0
20260508010521 13 0.0 0.0 0.00 0.00 0.00 72 1013.9
20260508005516 13 0.0 0.0 0.00 0.00 0.00 65 1013.8
20260508004541 15 0.0 0.0 0.00 0.00 0.00 62 1013.8
20260508003521 15 200 0.0 1.6 0.00 0.00 0.00 62 1013.7
20260508002521 16 0.0 0.0 0.00 0.00 0.00 54 1013.6
20260508001521 16 200 0.0 3.2 0.00 0.00 0.00 54 1013.6
20260508000521 16 199 0.0 3.2 0.00 0.00 0.00 53 1013.6
20260507235516 17 199 0.0 3.2 0.00 0.00 0.00 48 1013.6
20260507234521 17 0.0 0.0 0.00 0.00 0.00 43 1013.7
20260507233521 17 0.0 3.2 0.00 0.00 0.00 42 1013.7
20260507232521 17 199 0.0 3.2 0.00 0.00 0.00 44 1014.0
20260507231521 17 200 0.0 3.2 0.00 0.00 0.00 44 1014.1
20260507230521 18 199 1.6 4.8 0.00 0.00 0.00 36 1014.1
20260507225521 18 199 0.0 8.0 0.00 0.00 0.00 36 1014.2
20260507224516 18 200 0.0 9.7 0.00 0.00 0.00 36 1014.2
20260507223521 18 226 1.6 6.4 0.00 0.00 0.00 37 1014.3
20260507222521 18 233 0.0 4.8 0.00 0.00 0.00 38 1014.3
20260507221541 18 234 0.0 3.2 0.00 0.00 0.00 37 1014.5
20260507220521 18 233 1.6 6.4 0.00 0.00 0.00 36 1014.6
20260507215521 18 237 0.0 8.0 0.00 0.00 0.00 38 1014.6
20260507214516 18 199 0.0 6.4 0.00 0.00 0.00 37 1014.6
20260507213516 18 211 1.6 6.4 0.00 0.00 0.00 41 1014.7
20260507212521 18 250 1.6 14.5 0.00 0.00 0.00 35 1014.8
20260507211521 18 273 1.6 6.4 0.00 0.00 0.00 35 1014.9
20260507210521 18 259 3.2 11.3 0.00 0.00 0.00 40 1015.0
20260507205521 18 270 3.2 9.7 0.00 0.00 0.00 42 1014.9
20260507204521 18 269 3.2 16.1 0.00 0.00 0.00 39 1014.9
20260507203516 18 272 4.8 12.9 0.00 0.00 0.00 41 1015.0
20260507202521 18 270 3.2 11.3 0.00 0.00 0.00 39 1015.1
20260507201542 17 249 0.0 8.0 0.00 0.00 0.00 37 1015.3
20260507200521 18 223 1.6 6.4 0.00 0.00 0.00 39 1015.4
20260507195521 18 229 1.6 8.0 0.00 0.00 0.00 35 1015.7
20260507194521 18 273 3.2 9.7 0.00 0.00 0.00 43 1015.8
20260507193516 18 282 1.6 4.8 0.00 0.00 0.00 37 1015.8
20260507192516 18 287 0.0 9.7 0.00 0.00 0.00 36 1015.9
20260507191521 18 264 3.2 6.4 0.00 0.00 0.00 46 1016.0
20260507190521 17 265 0.0 6.4 0.00 0.00 0.00 41 1016.0
20260507185521 17 262 3.2 12.9 0.00 0.00 0.00 37 1016.1
20260507184521 17 245 3.2 9.7 0.00 0.00 0.00 43 1016.3
20260507183521 17 211 1.6 8.0 0.00 0.00 0.00 41 1016.3
20260507182536 17 307 0.0 6.4 0.00 0.00 0.00 40 1016.2
20260507181521 16 277 3.2 16.1 0.00 0.00 0.00 38 1016.4
20260507180521 17 260 3.2 12.9 0.00 0.00 0.00 40 1016.5
20260507175541 17 266 1.6 9.7 0.00 0.00 0.00 44 1016.6
20260507174521 16 261 1.6 6.4 0.00 0.00 0.00 40 1016.8
20260507173521 16 267 0.0 8.0 0.00 0.00 0.00 39 1016.9
20260507172522 16 273 4.8 11.3 0.00 0.00 0.00 42 1017.1
20260507171517 16 280 3.2 11.3 0.00 0.00 0.00 41 1017.1
20260507170541 16 267 1.6 12.9 0.00 0.00 0.00 49 1017.3
20260507165541 16 259 3.2 9.7 0.00 0.00 0.00 39 1017.3
20260507164521 16 270 1.6 8.0 0.00 0.00 0.00 48 1017.4
20260507163521 16 269 1.6 9.7 0.00 0.00 0.00 46 1017.5
20260507162521 15 259 1.6 9.7 0.00 0.00 0.00 37 1017.6
20260507161516 15 280 1.6 8.0 0.00 0.00 0.00 44 1017.6
20260507160539 15 273 1.6 8.0 0.00 0.00 0.00 42 1017.5
20260507155521 15 266 1.6 8.0 0.00 0.00 0.00 40 1017.6
20260507154521 15 243 1.6 8.0 0.00 0.00 0.00 43 1017.7
20260507153541 15 112 0.0 6.4 0.00 0.00 0.00 44 1017.8
20260507152519 15 164 1.6 4.8 0.00 0.00 0.00 47 1017.9
20260507151541 13 132 1.6 6.4 0.00 0.00 0.00 44 1017.9
20260507150515 13 127 0.0 3.2 0.00 0.00 0.00 44 1017.9
20260507145521 13 108 1.6 4.8 0.00 0.00 0.00 50 1017.9
20260507144521 12 76 0.0 4.8 0.00 0.00 0.00 60 1017.9
20260507143521 12 63 0.0 4.8 0.00 0.00 0.00 61 1018.0
20260507142520 12 61 0.0 4.8 0.00 0.00 0.00 62 1018.1
20260507141521 11 54 0.0 4.8 0.00 0.00 0.00 63 1018.0
20260507140516 11 53 0.0 1.6 0.00 0.00 0.00 65 1017.9
20260507135515 11 53 0.0 3.2 0.00 0.00 0.00 67 1017.8
20260507134521 10 44 0.0 3.2 0.00 0.00 0.00 70 1017.9
20260507133521 10 44 0.0 3.2 0.00 0.00 0.00 71 1017.9
20260507132521 10 44 0.0 1.6 0.00 0.00 0.00 74 1017.9
20260507131521 9 0.0 3.2 0.00 0.00 0.00 78 1017.9
20260507130521 8 0.0 0.0 0.00 0.00 0.00 84 1018.0
20260507125536 8 0.0 0.0 0.00 0.00 0.00 88 1017.8
20260507124516 7 44 0.0 3.2 0.00 0.00 0.00 92 1017.6
20260507123521 7 0.0 0.0 0.00 0.00 0.00 92 1017.6
20260507122521 6 0.0 0.0 0.00 0.00 0.00 92 1017.6
20260507121521 6 0.0 0.0 0.00 0.00 0.00 92 1017.5
20260507120521 5 0.0 0.0 0.00 0.00 0.00 92 1017.5
20260507115541 5 0.0 0.0 0.00 0.00 0.00 92 1017.5
20260507114515 5 0.0 0.0 0.00 0.00 0.00 92 1017.4
20260507113521 5 0.0 0.0 0.00 0.00 0.00 92 1017.3
20260507112521 5 0.0 0.0 0.00 0.00 0.00 92 1017.2
20260507111521 5 0.0 0.0 0.00 0.00 0.00 92 1017.1
20260507110522 5 0.0 0.0 0.00 0.00 0.00 91 1017.0
20260507105541 5 0.0 0.0 0.00 0.00 0.00 91 1016.9
20260507104521 5 0.0 0.0 0.00 0.00 0.00 91 1016.9
20260507103516 5 0.0 0.0 0.00 0.00 0.00 91 1016.9
20260507102521 5 0.0 0.0 0.00 0.00 0.00 91 1017.0
20260507101521 5 0.0 0.0 0.00 0.00 0.00 90 1017.1
20260507100521 5 0.0 0.0 0.00 0.00 0.00 91 1017.1
20260507095521 5 0.0 0.0 0.00 0.00 0.00 90 1017.1
20260507094521 5 0.0 0.0 0.00 0.00 0.00 89 1017.3
20260507093521 6 0.0 0.0 0.00 0.00 0.00 88 1017.2
20260507092535 6 0.0 0.0 0.00 0.00 0.00 88 1017.2
20260507091521 6 0.0 0.0 0.00 0.00 0.00 88 1017.2
20260507090520 6 0.0 0.0 0.00 0.00 0.00 88 1017.3
20260507085541 6 0.0 0.0 0.00 0.00 0.00 89 1017.2
20260507084521 6 0.0 0.0 0.00 0.00 0.00 89 1017.0
20260507083521 6 0.0 0.0 0.00 0.00 0.00 88 1016.8
20260507082536 6 0.0 0.0 0.00 0.00 0.00 88 1016.6
20260507081515 7 0.0 0.0 0.00 0.00 0.00 88 1016.7
20260507080521 7 0.0 0.0 0.00 0.00 0.00 88 1016.7
20260507075520 7 0.0 0.0 0.00 0.00 0.00 88 1016.6
20260507074520 7 0.0 0.0 0.00 0.00 0.00 89 1016.5
20260507073520 6 0.0 0.0 0.00 0.00 0.00 91 1016.5
20260507072521 6 0.0 0.0 0.00 0.00 0.00 90 1016.5
20260507071515 6 0.0 0.0 0.00 0.00 0.00 90 1016.5
20260507070541 7 0.0 0.0 0.00 0.00 0.00 90 1016.4
20260507065521 7 0.0 0.0 0.00 0.00 0.00 90 1016.2
20260507064521 7 0.0 0.0 0.00 0.00 0.00 90 1016.3
20260507063521 7 0.0 0.0 0.00 0.03 0.00 90 1016.3
20260507062520 7 0.0 0.0 0.00 0.03 0.00 90 1016.4
20260507061520 7 0.0 0.0 0.00 0.05 0.00 90 1016.4
20260507060535 7 0.0 0.0 0.00 0.05 0.00 90 1016.4
20260507055541 7 0.0 0.0 0.00 0.05 0.00 90 1016.5
20260507054601 7 0.0 0.0 0.00 0.05 0.00 90 1016.5
20260507053521 7 0.0 0.0 0.00 0.05 0.00 89 1016.6
20260507052521 7 0.0 0.0 0.00 0.05 0.00 89 1016.5
20260507051521 7 0.0 0.0 0.00 0.05 0.00 88 1016.5
20260507050521 8 0.0 0.0 0.00 0.05 0.00 85 1016.4
20260507045522 8 0.0 0.0 0.00 0.10 0.08 85 1016.4
20260507044516 8 0.0 0.0 0.00 0.15 0.08 85 1016.1
20260507043516 8 0.0 0.0 0.00 0.23 0.08 83 1016.2
20260507042521 8 0.0 0.0 0.00 0.25 0.08 85 1016.2
20260507041521 8 0.0 0.0 0.00 0.25 0.08 86 1016.2
20260507040542 8 0.0 0.0 0.00 0.25 0.08 85 1016.1
20260507035521 8 0.0 0.0 0.00 0.25 0.08 84 1016.0
20260507034521 8 0.0 0.0 0.00 0.28 0.08 83 1016.1
20260507033517 8 0.0 0.0 0.00 0.28 0.08 80 1016.3
20260507032516 8 0.0 0.0 0.00 0.30 0.08 80 1016.4
20260507031541 9 0.0 0.0 0.00 0.38 0.08 82 1016.3
20260507030521 9 0.0 0.0 0.00 0.41 0.08 81 1015.8
20260507025542 9 0.0 0.0 0.00 0.48 0.08 77 1015.8
20260507024521 9 0.0 0.0 0.00 0.53 0.08 76 1016.1
20260507023521 10 0.0 0.0 0.00 0.56 0.08 74 1016.2
20260507022516 10 0.0 0.0 0.00 0.58 0.08 74 1016.1
20260507021521 10 0.0 0.0 0.00 0.58 0.08 70 1015.9
20260507020521 10 0.0 0.0 0.00 0.74 0.08 72 1015.9
20260507015522 11 0.0 0.0 0.00 0.76 0.08 73 1015.8